Weather History for Andrews, NC

Change the Weather History Date:

Wednesday, December 19, 2012

  Actual Average (KTYS) Record (KTYS)
Temperature  
Mean Temperature 44 °F 40 °F  
Max Temperature 61 °F 49 °F 69 °F (1967)
Min Temperature 28 °F 31 °F 5 °F (1884)
Degree Days  
Heating Degree Days 20 25  
Month to date heating degree days 440  
Since 1 July heating degree days 1121  
Cooling Degree Days 0 0  
Month to date cooling degree days 0  
Year to date cooling degree days 1526  
Moisture  
Dew Point 36 °F    
Average Humidity 87    
Maximum Humidity 100    
Minimum Humidity 51    
Precipitation  
Precipitation 0.00 in 0.14 in 2.52 in (1872)
Month to date precipitation 2.86  
Year to date precipitation 46.22  
Snow  
Snow 0.00 in 0.00 in - ()
Month to date snowfall 0.3  
Since 1 July snowfall 0.3  
Snow Depth -    
Sea Level Pressure  
Sea Level Pressure 30.07 in    
Wind  
Wind Speed 0 mph (West)    
Max Wind Speed 5 mph    
Max Gust Speed -    
Visibility 9 miles    
Events      
T = Trace of Precipitation, MM = Missing Value Source: NWS Daily Summary

Daily Weather History Graph

Daily Weather History Graph

Search for Another Location

Airport:

Trip Planner

Search our weather history database for the weather conditions in past years. The results will help you decide how hot, cold, wet, or windy it might be!

Date:

Astronomy

Dec. 19, 2012 Rise Set
Actual Time 7:39 AM EST 5:26 PM EST
Civil Twilight 7:11 AM EST 5:54 PM EST
Nautical Twilight 6:39 AM EST 6:26 PM EST
Astronomical Twilight 6:08 AM EST 6:57 PM EST
Moon 12:02 PM EST (12/19) No Moon Set
Length of Visible Light 10h 43m
Length of Day
9h 47m
Waxing Crescent, 45% of the Moon is Illuminated
Dec 19
Waxing Crescent
Dec 20
First Quarter
Dec 28
Full
Jan 4
Last Quarter
Jan 11
New

Hourly Weather History & Observations

Time (EST) Temp. Dew Point Humidity Pressure Visibility Wind Dir Wind Speed Gust Speed Precip Events Conditions
12:15 AM 30.6 °F 30.0 °F 98% 30.03 in 10.0 mi Calm Calm - N/A   Clear
12:35 AM 29.8 °F 29.5 °F 99% 30.03 in 10.0 mi Calm Calm - N/A   Clear
12:55 AM 30.6 °F 30.2 °F 99% 30.03 in 10.0 mi Calm Calm - N/A   Clear
1:15 AM 30.0 °F 29.5 °F 98% 30.03 in 10.0 mi Calm Calm - N/A   Clear
1:35 AM 29.5 °F 28.9 °F 98% 30.03 in 10.0 mi Calm Calm - N/A   Clear
1:55 AM 29.8 °F 29.5 °F 99% 30.04 in 10.0 mi Calm Calm - N/A   Clear
2:15 AM 29.8 °F 29.3 °F 98% 30.04 in 7.0 mi Calm Calm - N/A   Clear
2:35 AM 29.5 °F 29.3 °F 99% 30.05 in 10.0 mi Calm Calm - N/A   Clear
2:55 AM 29.5 °F 29.1 °F 99% 30.05 in 10.0 mi Calm Calm - N/A   Clear
3:15 AM 29.8 °F 29.3 °F 98% 30.05 in 10.0 mi Calm Calm - N/A   Clear
3:35 AM 28.2 °F 27.5 °F 97% 30.04 in 10.0 mi Calm Calm - N/A   Clear
3:55 AM 30.0 °F 29.7 °F 99% 30.04 in 10.0 mi Calm Calm - N/A   Clear
4:15 AM 30.2 °F 29.8 °F 99% 30.05 in 10.0 mi Calm Calm - N/A   Scattered Clouds
4:35 AM 28.8 °F 28.2 °F 98% 30.05 in 10.0 mi Calm Calm - N/A   Scattered Clouds
4:55 AM 28.8 °F 28.2 °F 98% 30.05 in 10.0 mi Calm Calm - N/A   Clear
5:15 AM 29.3 °F 28.8 °F 98% 30.05 in 10.0 mi Calm Calm - N/A   Clear
5:35 AM 29.7 °F 29.1 °F 98% 30.05 in 10.0 mi Calm Calm - N/A   Clear
5:55 AM 28.9 °F 28.0 °F 96% 30.06 in 10.0 mi Calm Calm - N/A   Clear
6:15 AM 28.6 °F 27.9 °F 97% 30.06 in 10.0 mi Calm Calm - N/A   Clear
6:35 AM 28.2 °F 27.5 °F 97% 30.07 in 10.0 mi Calm Calm - N/A   Clear
6:55 AM 28.4 °F 27.9 °F 98% 30.07 in 10.0 mi Calm Calm - N/A   Clear
7:15 AM 28.9 °F 28.2 °F 97% 30.07 in 10.0 mi Calm Calm - N/A   Clear
7:35 AM 28.0 °F 27.5 °F 98% 30.08 in 10.0 mi Calm Calm - N/A   Clear
7:55 AM 28.0 °F 27.5 °F 98% 30.08 in 10.0 mi Calm Calm - N/A   Clear
8:15 AM 28.6 °F 28.2 °F 99% 30.09 in 10.0 mi Calm Calm - N/A   Clear
8:35 AM 30.4 °F 30.0 °F 99% 30.09 in 10.0 mi Calm Calm - N/A   Clear
8:55 AM 31.8 °F 31.3 °F 98% 30.10 in 10.0 mi Calm Calm - N/A   Clear
9:15 AM 32.0 °F 32.0 °F 100% 30.10 in 10.0 mi Calm Calm - N/A   Clear
9:35 AM 33.8 °F 32.5 °F 95% 30.11 in 10.0 mi Calm Calm - N/A   Clear
9:55 AM 36.0 °F 34.3 °F 94% 30.11 in 10.0 mi Calm Calm - N/A   Clear
10:15 AM 39.0 °F 36.0 °F 89% 30.11 in 10.0 mi Calm Calm - N/A   Clear
10:35 AM 41.5 °F 36.9 °F 83% 30.11 in 10.0 mi Calm Calm - N/A   Clear
10:55 AM 44.1 °F 37.4 °F 77% 30.11 in 10.0 mi Calm Calm - N/A   Clear
11:15 AM 46.6 °F 38.8 °F 74% 30.11 in 10.0 mi Calm Calm - N/A   Clear
11:35 AM 49.6 °F 39.6 °F 68% 30.10 in 10.0 mi Calm Calm - N/A   Clear
11:55 AM 52.5 °F 41.0 °F 65% 30.09 in 10.0 mi Calm Calm - N/A   Clear
12:15 PM 54.0 °F 39.6 °F 58% 30.09 in 10.0 mi Calm Calm - N/A   Clear
12:35 PM 55.9 °F 41.0 °F 57% 30.08 in 10.0 mi Calm Calm - N/A   Clear
12:55 PM 56.5 °F 40.6 °F 55% 30.06 in 10.0 mi Calm Calm - N/A   Clear
1:15 PM 58.1 °F 42.3 °F 56% 30.06 in 10.0 mi Calm Calm - N/A   Clear
1:35 PM 58.6 °F 42.3 °F 55% 30.05 in 10.0 mi Calm Calm - N/A   Clear
1:55 PM 60.4 °F 43.0 °F 53% 30.05 in 10.0 mi Calm Calm - N/A   Clear
2:15 PM 60.8 °F 42.8 °F 52% 30.04 in 10.0 mi WNW 3.5 mph - N/A   Clear
2:35 PM 60.8 °F 42.6 °F 51% 30.04 in 10.0 mi West 4.6 mph - N/A   Clear
2:55 PM 61.0 °F 43.3 °F 52% 30.04 in 10.0 mi West 4.6 mph - N/A   Clear
3:15 PM 60.8 °F 44.1 °F 54% 30.04 in 10.0 mi West 4.6 mph - N/A   Clear
3:35 PM 60.3 °F 45.0 °F 57% 30.05 in 10.0 mi West 4.6 mph - N/A   Clear
3:55 PM 60.4 °F 45.5 °F 58% 30.05 in 10.0 mi Calm Calm - N/A   Clear
4:15 PM 61.2 °F 44.4 °F 54% 30.05 in 10.0 mi Calm Calm - N/A   Clear
4:35 PM 58.6 °F 46.4 °F 64% 30.06 in 10.0 mi Calm Calm - N/A   Clear
4:55 PM 55.8 °F 47.5 °F 74% 30.06 in 10.0 mi Calm Calm - N/A   Clear
5:15 PM 53.1 °F 46.8 °F 79% 30.06 in 10.0 mi Calm Calm - N/A   Clear
5:35 PM 50.4 °F 46.0 °F 85% 30.06 in 10.0 mi Calm Calm - N/A   Clear
5:55 PM 49.5 °F 45.1 °F 85% 30.07 in 10.0 mi Calm Calm - N/A   Clear
6:15 PM 48.0 °F 44.8 °F 89% 30.07 in 10.0 mi Calm Calm - N/A   Clear
6:35 PM 45.9 °F 43.5 °F 92% 30.08 in 10.0 mi Calm Calm - N/A   Clear
6:55 PM 45.7 °F 44.2 °F 95% 30.08 in 10.0 mi Calm Calm - N/A   Clear
7:15 PM 43.0 °F 41.4 °F 94% 30.08 in 10.0 mi Calm Calm - N/A   Clear
7:35 PM 42.8 °F 41.7 °F 96% 30.08 in 10.0 mi Calm Calm - N/A   Clear
7:55 PM 42.1 °F 40.6 °F 95% 30.09 in 10.0 mi Calm Calm - N/A   Clear
8:15 PM 42.8 °F 42.6 °F 99% 30.10 in 10.0 mi Calm Calm - N/A   Clear
8:35 PM 41.5 °F 41.2 °F 99% 30.10 in 7.0 mi Calm Calm - N/A   Clear
8:55 PM 40.3 °F 40.1 °F 99% 30.10 in 7.0 mi Calm Calm - N/A   Clear
9:15 PM 40.3 °F 40.1 °F 99% 30.09 in 7.0 mi Calm Calm - N/A   Clear
9:35 PM 39.6 °F 39.4 °F 99% 30.10 in 5.0 mi Calm Calm - N/A   Clear
9:55 PM 39.0 °F 39.0 °F 100% 30.10 in 1.8 mi Calm Calm - N/A   Unknown
10:15 PM 38.5 °F 38.5 °F 100% 30.10 in 4.0 mi Calm Calm - N/A   Clear
10:35 PM 37.4 °F 37.4 °F 100% 30.10 in 5.0 mi Calm Calm - N/A   Clear
10:55 PM 37.8 °F 37.8 °F 100% 30.10 in 4.0 mi Calm Calm - N/A   Clear
11:15 PM 38.3 °F 38.3 °F 100% 30.09 in 5.0 mi Calm Calm - N/A   Clear
11:35 PM 39.2 °F 39.2 °F 100% 30.09 in 7.0 mi Calm Calm - N/A   Clear
11:55 PM 36.5 °F 36.5 °F 100% 30.08 in 5.0 mi Calm Calm - N/A   Clear